Dewpoint
15 14 14 13 13 13 12 12 12 12 11 12 11 11 12 11 11 12 12 12 13 13 13 13 12 11 10 9 8 10 12 12 10 8 -0 -3 3 9 8 7 5 13 6
14 15 13 13 12 12 12 12 11 11 11 12 12 12 12 12 12 12 12 12 13 13 12 13 12 12 12 11 10 10 9 9 10 9 10 2 5 -2 3 5 5 8 6
14 14 13 12 12 10 9 10 9 8 9 9 8 8 8 8 9 10 10 10 11 11 12 12 12 12 12 12 11 11 11 12 11 9 9 12 11 6 1 1 4 3 6
14 13 12 11 8 5 2 0 -2 -4 -6 -7 -9 -9 -8 -7 -7 -6 -4 -2 1 3 6 8 10 11 12 12 12 12 11 11 11 10 11 13 13 12 4 5 10 11 12
13 12 12 10 7 2 -8 -18 -18 -17 -17 -16 -16 -16 -15 -15 -15 -14 -14 -14 -14 -13 -10 -5 -1 1 4 7 9 10 11 11 11 11 12 13 13 13 12 5 8 10 10
12 11 11 8 2 -13 -16 -17 -15 -14 -13 -12 -11 -11 -10 -10 -9 -9 -8 -8 -8 -9 -11 -12 -12 -11 -9 -7 -3 1 5 8 9 10 12 12 12 13 11 10 8 6 8
10 10 8 2 -11 -14 -16 -14 -13 -11 -10 -10 -10 -9 -9 -9 -9 -9 -8 -7 -6 -6 -6 -6 -7 -8 -8 -9 -10 -10 -10 -6 -1 4 11 11 11 12 10 9 9 10 10
9 8 2 -8 -12 -15 -14 -12 -11 -10 -10 -10 -10 -10 -11 -11 -11 -10 -9 -8 -7 -6 -6 -5 -5 -5 -5 -5 -6 -6 -6 -8 -9 5 7 10 11 11 10 10 11 11 11
7 3 -7 -9 -13 -14 -12 -12 -11 -11 -11 -11 -12 -12 -13 -13 -12 -11 -10 -9 -8 -8 -7 -7 -7 -6 -6 -6 -6 -6 -5 -5 -4 5 3 6 8 8 7 9 10 11 11
4 -4 -7 -10 -12 -11 -12 -11 -11 -11 -11 -12 -12 -13 -12 -12 -11 -11 -10 -10 -10 -9 -9 -9 -9 -9 -9 -9 -9 -8 -7 -6 0 2 4 5 3 1 3 5 7 8 9
2 -5 -7 -10 -12 -11 -11 -11 -11 -11 -11 -12 -13 -11 -11 -9 -9 -8 -8 -8 -8 -7 -7 -7 -7 -7 -7 -7 -7 -7 -8 1 2 3 4 3 -2 0 4 5 4 4 4
3 -5 -7 -9 -12 -11 -10 -10 -9 -10 -10 -11 -11 -10 -8 -9 -9 -8 -7 -6 -7 -6 -7 -6 -6 -6 -5 -1 2 -0 1 -2 -2 2 3 -6 -8 -5 -2 1 4 4 4
3 -5 -5 -9 -11 -11 -10 -9 -8 -8 -10 -9 -10 -10 -9 -8 -9 -4 -0 -3 -4 -3 -4 -5 -3 -5 -5 -5 -3 -2 1 -1 3 3 2 -3 -5 -6 -6 -4 -3 -3 -2
0 -4 -5 -6 -8 -9 -9 -9 -9 -9 -9 -8 -10 -10 -10 -10 -9 -7 -6 -7 -7 -6 -6 -6 -6 -7 -7 -7 -8 -9 -6 -0 2 4 3 -1 -3 -3 -3 -3 -4 -4 -4
2 -3 -4 -5 -7 -8 -9 -9 -8 -8 -7 -9 -10 -11 -11 -11 -9 -7 -8 -8 -8 -10 -12 -15 -17 -17 -15 -14 -15 -15 -14 -2 2 4 5 -3 -3 -1 -1 -0 -0 -1 -1
2 -2 -4 -5 -6 -8 -7 -7 -7 -8 -10 -9 -9 -10 -10 -10 -9 -8 -8 -9 -11 -14 -18 -21 -22 -23 -23 -24 -23 -21 -16 1 2 4 5 -3 -3 -2 -1 -0 0 1 0
2 2 -3 -4 -7 -6 -6 -6 -6 -8 -10 -9 -9 -9 -9 -9 -8 -8 -9 -10 -13 -16 -17 -17 -17 -17 -15 -17 -17 -16 -13 -5 3 0 -1 -1 -1 -3 -2 -2 -2 -2 -1
2 2 -1 -4 -6 -5 -5 -4 -5 -7 -9 -9 -8 -7 -7 -7 -8 -8 -9 -11 -14 -15 -15 -14 -13 -13 -13 -14 -16 -13 -7 -4 -2 0 -4 -2 -4 -1 -4 -4 -5 -3 -2
1 3 1 -4 -5 -5 -4 -3 -4 -8 -9 -7 -7 -7 -7 -6 -6 -7 -8 -9 -10 -11 -10 -10 -9 -9 -9 -10 -11 -12 -11 -5 1 0 2 -2 -2 -2 -4 -7 -12 -9 -8
0 2 1 -3 -4 -5 -3 -3 -5 -8 -9 -8 -8 -7 -6 -6 -6 -6 -6 -6 -7 -8 -8 -8 -7 -7 -6 -6 -7 -7 -7 -3 -4 0 2 -3 -7 -8 -7 -13 -10 -11 -17
-1 -1 -1 -2 -3 -4 -3 -3 1 -1 -1 -7 -7 -7 -6 -6 -5 -5 -5 -5 -5 -5 -5 -5 -6 -6 -6 -6 -5 -5 -5 -4 -2 3 -1 -3 -2 -11 -15 -11 -11 -15 -21
-3 -3 -1 -1 -2 -4 -3 -5 -5 -6 -7 -7 -7 -7 -7 -6 -5 -5 -4 -4 -4 -4 -4 -4 -4 -5 -5 -5 -6 -4 -4 -5 -5 -2 -1 -4 -8 -14 -17 -16 -19 -22 -22
-1 0 0 0 -2 -3 -4 -6 -6 -5 -5 -3 -1 -2 -3 -4 -4 -4 -4 -4 -4 -3 -3 -3 -3 -4 -4 -4 -4 -5 -3 -4 -5 -5 -6 -6 -8 -8 -8 -14 -15 -16 -19
1 2 -1 -2 -3 -3 -5 -3 -2 -2 -0 2 3 0 0 0 -0 -0 -0 -1 -3 -3 -3 -3 -2 -3 -3 -3 -3 -4 -5 -5 -3 -4 -4 -4 -5 -5 -6 -8 -11 -12 -17
0 -2 -2 -2 -3 -3 -5 -7 -7 -6 -3 -1 -3 -3 -3 0 1 1 0 -1 -1 -2 -3 -2 -1 -2 -3 -3 -2 -2 -3 -3 -4 -2 -2 -3 -3 -3 -4 -5 -5 -10 -10
-2 -2 -2 -3 -6 -7 -7 -6 -6 -5 -5 -5 -4 -1 1 3 2 1 -0 -0 -1 -1 -1 -1 -1 -3 -3 -2 -2 -2 -2 -2 -3 -3 -2 -2 -3 -4 -4 -5 -4 -5 -7
Wind_Speed
6 4 7 6 5 3 2 3 3 3 4 5 5 6 6 7 7 8 8 7 6 6 6 6 7 7 7 7 6 6 6 6 6 5 5 4 5 5 4 2 1 4 2
9 8 6 4 2 2 3 3 4 5 5 6 6 7 7 7 7 7 7 7 6 6 7 6 7 7 8 9 8 7 7 7 8 7 7 6 6 5 5 4 2 4 3
9 6 5 3 2 2 4 5 6 7 7 7 8 9 9 10 10 9 10 9 9 9 8 9 9 9 8 8 9 9 8 8 8 8 7 5 7 8 6 4 4 5 5
10 8 4 2 2 3 4 5 6 7 8 9 10 10 11 12 13 13 13 13 13 12 12 12 12 12 12 11 10 10 9 10 10 8 7 7 4 11 8 6 5 5 6
8 5 3 1 1 3 4 5 6 7 7 8 9 9 10 11 12 12 12 13 13 13 13 14 14 14 14 14 13 13 13 11 10 8 6 10 10 11 12 8 8 8 9
8 3 3 1 2 4 5 7 7 7 8 8 9 9 9 10 10 11 11 11 11 11 11 13 13 14 14 14 15 15 15 14 13 6 9 10 15 12 14 11 10 11 10
8 4 2 1 2 4 5 6 7 8 8 8 8 9 9 10 9 10 10 10 10 11 11 11 12 12 12 13 13 13 13 13 12 10 8 10 12 16 15 13 12 12 11
8 4 2 1 2 4 5 6 7 8 8 9 9 10 10 10 10 10 10 10 11 11 11 11 11 11 11 11 11 11 11 10 7 6 8 6 14 18 15 12 12 12 13
8 5 2 1 3 4 5 6 7 8 9 10 10 11 11 11 11 11 10 10 10 11 11 12 11 11 12 12 12 12 11 10 8 7 6 8 14 15 13 13 13 13 12
7 5 3 1 2 4 6 6 7 8 9 10 11 11 12 11 11 11 11 11 11 11 11 12 12 12 12 12 12 12 11 10 6 8 5 13 12 11 12 13 14 15 14
7 5 3 2 2 3 5 7 7 8 9 10 11 11 11 9 11 12 11 12 12 12 12 11 11 11 11 11 10 10 9 5 7 6 6 15 12 12 12 12 13 14 14
8 5 4 3 2 3 5 6 7 8 8 9 9 9 9 10 10 10 11 11 10 11 11 11 10 10 9 8 8 9 6 8 6 7 10 13 12 13 14 14 15 15 15
9 7 5 3 2 3 4 5 6 7 8 9 9 10 10 10 10 9 8 10 11 11 10 10 10 10 10 9 8 6 8 7 5 5 13 11 10 10 11 14 16 17 17
9 8 6 3 4 4 5 5 7 7 8 7 10 10 10 10 10 9 9 11 12 12 12 11 10 11 10 10 10 9 7 7 6 5 13 9 8 9 10 11 12 13 13
9 8 7 4 4 4 5 7 8 8 7 8 8 10 10 10 10 9 10 11 11 12 12 11 11 10 9 9 9 9 7 6 5 4 10 9 8 8 8 8 8 9 9
9 9 8 5 5 5 5 7 8 8 7 6 7 8 9 10 11 11 11 11 12 12 12 12 11 11 10 10 10 9 7 6 4 3 3 10 7 7 7 7 7 7 6
10 9 9 7 5 5 6 7 9 9 7 6 6 7 9 10 11 12 12 12 12 11 11 11 11 11 10 10 9 9 7 5 4 6 6 5 10 7 8 8 9 9 9
10 10 10 8 6 6 7 9 10 8 6 6 6 7 9 10 11 11 11 11 12 12 12 12 12 12 11 12 11 9 8 7 6 6 7 6 9 10 10 9 9 10 10
11 11 12 10 9 8 8 10 10 8 6 7 7 7 9 9 10 10 11 11 12 12 12 13 13 13 13 13 13 11 11 7 7 7 7 8 9 9 11 12 12 12 12
12 13 12 13 11 9 10 12 10 8 8 8 8 9 9 10 10 11 11 11 11 12 12 12 13 13 14 15 15 12 12 9 9 7 8 10 12 13 13 14 12 13 12
14 15 15 14 11 10 11 10 7 7 8 10 12 11 12 12 12 12 12 12 12 12 12 13 13 14 13 14 15 12 11 10 8 7 9 10 14 14 13 13 13 14 16
15 15 14 13 12 12 12 12 10 11 12 13 14 15 15 14 14 14 13 13 13 13 13 14 14 14 13 15 14 11 7 8 9 9 12 13 14 14 14 16 17 17 19
13 14 13 12 13 13 12 11 12 14 14 15 14 15 16 15 16 16 16 16 15 15 14 15 15 15 15 14 13 8 5 4 16 6 15 13 13 15 16 18 20 20 19
12 13 14 13 12 12 12 12 14 15 14 13 15 16 18 18 16 17 16 17 17 16 16 16 16 16 16 15 14 11 11 13 6 10 9 16 18 17 20 20 20 22 19
12 13 12 11 11 11 12 13 14 14 13 14 15 16 15 16 16 15 16 16 17 17 17 17 17 18 17 17 16 15 15 15 15 14 18 13 16 19 23 23 21 20 23
11 10 9 9 9 9 10 11 11 11 12 13 13 13 12 11 14 15 16 15 15 16 17 18 19 18 19 20 20 19 19 17 15 15 19 23 22 24 17 23 23 24 22
Wind_Direction
153 145 126 120 118 83 51 34 5 345 332 330 331 330 332 327 327 335 342 340 338 340 337 343 339 339 334 334 330 328 337 339 336 336 331 315 299 307 321 338 43 19 290
150 147 137 136 108 52 14 352 339 334 330 329 327 323 321 320 319 320 319 331 346 339 328 317 314 315 316 321 322 322 323 320 318 326 327 333 327 303 289 287 260 231 261
132 133 145 137 72 12 346 331 324 319 317 316 314 313 312 311 307 306 306 306 306 301 303 304 306 309 315 317 315 314 311 316 319 327 336 12 302 307 299 287 265 259 271
114 117 139 120 31 346 330 321 318 314 314 313 312 312 311 308 309 308 304 302 299 296 294 291 291 292 295 299 301 302 302 300 309 321 346 308 272 300 300 281 274 274 282
130 156 160 159 338 328 328 327 322 323 324 322 320 319 318 317 317 314 312 309 304 298 293 290 289 289 288 287 285 284 285 291 299 321 330 301 296 289 292 287 274 277 296
128 154 189 256 329 336 331 334 333 335 333 332 331 328 324 320 321 316 313 309 305 299 293 287 287 289 289 287 285 283 282 282 284 302 293 294 304 270 286 285 279 276 278
135 145 194 270 329 330 334 335 337 339 340 340 336 336 335 334 330 323 315 311 307 303 301 299 298 295 293 292 292 290 286 283 282 283 277 279 279 273 281 286 284 283 283
166 177 203 273 329 333 336 340 343 345 344 344 344 342 339 336 331 325 323 319 315 310 306 302 300 301 299 297 294 295 296 294 281 298 278 283 264 269 279 286 287 285 284
170 177 199 288 325 328 341 348 352 350 348 348 347 345 343 339 335 332 328 323 319 315 312 310 309 306 302 301 299 297 295 293 287 283 281 264 264 271 272 273 274 280 286
175 187 205 254 333 344 342 354 355 353 350 349 350 349 346 340 343 341 336 333 328 325 324 322 319 314 309 304 300 298 297 298 304 289 301 265 269 274 272 271 268 271 275
187 197 213 249 309 336 341 351 350 354 348 347 350 352 350 347 343 337 339 337 337 336 334 333 331 328 325 317 312 313 309 307 298 296 286 268 275 270 272 276 279 278 277
199 205 226 247 288 332 342 349 350 350 347 345 346 346 345 342 343 336 338 338 337 339 333 337 338 336 347 347 331 340 325 302 307 298 277 279 278 269 266 268 271 271 271
202 215 233 246 304 322 331 338 343 340 340 340 342 345 345 345 349 345 343 340 342 340 339 337 343 338 340 336 330 329 325 328 313 301 277 291 284 277 268 264 267 272 276
203 222 232 254 299 309 320 329 331 332 335 338 338 345 349 347 348 350 347 346 344 345 339 340 341 338 336 332 329 328 323 323 319 304 295 303 282 278 277 282 286 285 285
199 226 234 259 290 307 314 323 326 330 327 329 338 348 351 349 351 356 346 349 347 346 344 344 343 340 336 330 328 325 325 317 320 308 287 302 294 284 280 282 286 290 292
197 225 235 255 286 302 313 321 323 320 318 328 338 350 353 357 359 356 350 351 351 349 347 347 349 348 344 341 340 332 329 330 320 308 266 304 300 297 295 295 289 292 284
205 215 233 251 273 290 306 322 320 312 311 321 327 341 355 2 360 354 351 350 348 347 346 348 348 347 343 339 336 330 326 304 302 304 289 274 309 298 298 298 297 294 292
206 215 227 244 262 279 302 314 311 299 301 301 314 333 351 357 356 352 347 344 343 344 347 349 348 350 343 338 335 321 317 309 291 284 286 280 287 294 303 303 304 303 300
206 210 224 240 253 271 293 308 304 287 288 287 303 320 332 340 343 343 342 342 343 344 349 352 350 350 348 343 340 326 316 290 277 284 278 285 290 289 297 304 306 302 301
212 211 221 237 250 270 293 307 296 285 284 283 292 300 311 320 325 328 333 336 340 341 343 345 345 346 345 345 342 330 318 297 294 284 284 299 298 299 299 302 303 301 295
218 220 224 235 249 271 295 303 289 281 279 285 287 292 299 303 308 314 319 324 330 332 333 335 337 339 339 340 348 329 308 313 296 278 290 293 291 297 296 293 294 297 299
224 224 223 229 247 267 285 287 275 275 281 282 285 291 293 296 299 303 306 309 315 319 323 325 327 330 334 333 340 351 337 304 321 307 286 285 289 296 303 303 303 305 303
216 216 218 226 244 266 283 283 283 286 289 293 298 295 294 296 297 299 300 300 301 305 310 315 321 324 323 326 327 328 329 312 305 299 300 303 293 297 299 297 302 303 302
205 208 217 231 249 270 277 283 287 288 285 276 279 279 286 294 296 300 300 296 294 296 300 306 313 318 318 317 311 310 290 283 297 309 289 308 302 296 296 292 297 301 301
203 205 215 234 254 265 279 284 284 286 287 290 293 292 291 289 293 299 306 304 298 294 295 300 306 311 314 311 306 298 293 292 283 269 292 288 282 300 299 299 296 292 297
195 203 218 236 256 271 281 285 286 287 291 294 294 293 294 286 295 303 308 309 305 299 298 300 303 305 306 304 303 299 292 284 273 268 274 285 285 289 285 286 293 291 290
Height
1543 1543 1544 1544 1544 1545 1545 1544 1544 1544 1543 1543 1543 1542 1542 1541 1540 1539 1538 1537 1536 1536 1535 1535 1534 1534 1533 1532 1532 1531 1531 1530 1530 1529 1529 1529 1529 1529 1529 1529 1529 1531 1529
1544 1544 1544 1545 1545 1545 1545 1545 1544 1544 1543 1543 1542 1541 1541 1540 1540 1539 1538 1537 1536 1536 1535 1534 1534 1533 1533 1532 1532 1531 1531 1530 1530 1529 1529 1529 1528 1528 1528 1528 1528 1528 1529
1545 1545 1545 1545 1546 1546 1545 1545 1544 1544 1543 1542 1541 1541 1540 1539 1538 1538 1537 1536 1535 1535 1534 1533 1532 1532 1532 1531 1531 1531 1530 1530 1529 1529 1529 1529 1530 1528 1528 1528 1528 1528 1528
1546 1546 1545 1546 1546 1546 1546 1545 1544 1544 1543 1542 1541 1540 1539 1538 1537 1536 1536 1535 1534 1533 1533 1532 1531 1531 1530 1530 1530 1529 1529 1529 1529 1529 1528 1529 1529 1528 1527 1527 1527 1527 1527
1546 1544 1545 1545 1545 1546 1545 1545 1545 1544 1543 1542 1540 1539 1538 1537 1536 1535 1534 1533 1532 1531 1531 1530 1529 1529 1528 1528 1528 1527 1527 1527 1527 1528 1530 1529 1528 1527 1527 1526 1526 1526 1526
1547 1544 1544 1545 1545 1546 1545 1545 1544 1543 1542 1541 1540 1539 1537 1536 1535 1533 1532 1531 1530 1529 1528 1527 1527 1526 1526 1525 1525 1525 1525 1525 1525 1526 1528 1529 1528 1525 1525 1525 1524 1525 1524
1546 1545 1545 1545 1545 1545 1545 1544 1544 1543 1542 1541 1539 1538 1537 1536 1534 1533 1531 1530 1529 1527 1526 1525 1525 1524 1524 1523 1523 1522 1522 1523 1523 1524 1525 1526 1525 1523 1523 1522 1522 1522 1522
1544 1545 1545 1545 1545 1545 1545 1544 1544 1543 1542 1540 1539 1538 1536 1535 1533 1532 1530 1529 1528 1527 1525 1524 1523 1523 1522 1521 1520 1520 1520 1520 1521 1523 1523 1523 1521 1520 1520 1520 1520 1520 1520
1544 1545 1545 1545 1545 1545 1544 1544 1543 1542 1541 1540 1538 1537 1535 1534 1533 1531 1530 1528 1527 1526 1525 1523 1523 1522 1521 1520 1519 1518 1518 1518 1519 1520 1519 1520 1517 1518 1517 1517 1517 1517 1517
1544 1545 1545 1545 1545 1545 1544 1544 1543 1542 1541 1539 1538 1536 1535 1533 1532 1530 1529 1528 1526 1525 1523 1522 1521 1520 1519 1518 1517 1517 1516 1516 1516 1516 1518 1515 1515 1515 1515 1515 1514 1515 1515
1543 1544 1545 1545 1545 1545 1544 1544 1543 1542 1541 1539 1538 1536 1534 1533 1531 1530 1528 1527 1525 1524 1523 1521 1520 1519 1517 1516 1516 1515 1515 1515 1514 1515 1515 1512 1512 1512 1512 1512 1512 1512 1512
1543 1543 1544 1544 1545 1544 1544 1544 1543 1542 1541 1539 1538 1536 1534 1533 1531 1530 1528 1526 1525 1523 1521 1520 1519 1517 1516 1515 1515 1514 1513 1512 1512 1512 1511 1509 1509 1509 1509 1509 1509 1509 1509
1541 1542 1543 1544 1544 1544 1543 1543 1542 1541 1540 1539 1537 1536 1534 1532 1530 1529 1528 1526 1524 1523 1521 1519 1518 1517 1515 1514 1513 1513 1511 1510 1511 1511 1507 1507 1507 1507 1507 1506 1505 1505 1506
1540 1541 1542 1543 1543 1543 1543 1542 1541 1540 1539 1538 1537 1535 1533 1532 1530 1529 1527 1526 1524 1523 1521 1519 1518 1516 1514 1513 1512 1511 1510 1509 1509 1509 1505 1505 1504 1505 1504 1504 1503 1503 1503
1539 1540 1541 1542 1542 1542 1542 1541 1540 1539 1538 1537 1536 1535 1533 1532 1530 1528 1527 1525 1523 1522 1521 1519 1517 1515 1513 1512 1510 1509 1508 1508 1508 1507 1505 1503 1503 1502 1502 1501 1501 1501 1500
1539 1539 1540 1540 1541 1541 1541 1540 1539 1538 1538 1537 1536 1535 1534 1532 1529 1528 1527 1524 1523 1521 1520 1518 1516 1514 1513 1511 1509 1508 1507 1507 1506 1505 1504 1500 1501 1500 1500 1499 1499 1498 1498
1537 1538 1538 1539 1539 1540 1540 1539 1539 1538 1537 1536 1535 1535 1533 1531 1529 1528 1526 1525 1522 1520 1519 1518 1516 1514 1512 1510 1508 1507 1505 1505 1504 1503 1502 1500 1498 1499 1498 1497 1497 1496 1495
1536 1536 1537 1537 1538 1538 1539 1539 1538 1537 1536 1535 1535 1534 1532 1530 1529 1528 1526 1524 1522 1520 1518 1517 1515 1513 1511 1509 1507 1505 1504 1502 1501 1500 1499 1498 1497 1497 1496 1495 1495 1494 1493
1534 1535 1535 1536 1536 1537 1537 1537 1536 1536 1535 1534 1534 1533 1531 1530 1529 1527 1525 1524 1522 1521 1518 1516 1515 1513 1511 1509 1506 1504 1502 1501 1500 1499 1498 1497 1496 1495 1494 1493 1493 1492 1491
1531 1532 1533 1534 1535 1535 1535 1535 1535 1534 1533 1533 1532 1531 1530 1529 1528 1526 1525 1523 1521 1520 1518 1516 1514 1513 1510 1508 1506 1503 1501 1499 1498 1497 1497 1495 1494 1493 1492 1491 1489 1488 1488
1528 1529 1530 1531 1533 1533 1534 1533 1534 1533 1532 1531 1530 1529 1528 1527 1526 1525 1523 1522 1520 1519 1517 1515 1514 1512 1510 1508 1504 1503 1500 1498 1497 1496 1495 1494 1493 1490 1489 1487 1486 1485 1484
1526 1527 1528 1529 1530 1531 1531 1531 1531 1531 1530 1529 1528 1527 1526 1525 1524 1523 1522 1520 1519 1518 1516 1514 1512 1510 1509 1507 1505 1502 1501 1500 1496 1495 1495 1492 1490 1488 1487 1485 1484 1483 1481
1523 1525 1526 1528 1529 1529 1529 1529 1529 1528 1527 1527 1526 1524 1523 1523 1522 1521 1520 1518 1517 1515 1514 1512 1510 1509 1507 1506 1504 1504 1502 1499 1496 1493 1492 1490 1489 1486 1484 1482 1480 1478 1477
1521 1522 1524 1526 1527 1527 1527 1527 1526 1526 1525 1525 1524 1522 1521 1520 1519 1518 1517 1515 1514 1513 1512 1510 1508 1506 1505 1504 1503 1501 1501 1499 1496 1492 1490 1488 1486 1484 1482 1479 1477 1475 1473
1518 1520 1522 1524 1524 1524 1524 1524 1523 1523 1522 1521 1520 1518 1517 1517 1516 1515 1514 1512 1511 1510 1509 1507 1505 1504 1502 1501 1500 1499 1497 1495 1494 1492 1486 1486 1485 1481 1478 1475 1473 1471 1469
1516 1519 1521 1521 1522 1522 1522 1521 1520 1520 1519 1518 1517 1516 1515 1515 1514 1513 1511 1509 1508 1507 1505 1504 1502 1501 1499 1497 1496 1495 1493 1492 1490 1489 1485 1481 1479 1476 1474 1471 1468 1466 1465